Alma, MI

3:40 AM EDT on August 19, 2017 (GMT -0400)
Gratiot Community

Weather History for KAMN - November, 2012

Change the Weather History Date:

Friday, November 16, 2012

  Actual Average Record
Temperature  
Mean Temperature 35 °F -  
Max Temperature 48 °F 45 °F 69 °F (1990)
Min Temperature 22 °F 27 °F 10 °F (1997)
Degree Days  
Heating Degree Days 30    
Moisture  
Dew Point 30 °F    
Average Humidity 89    
Maximum Humidity 100    
Minimum Humidity 62    
Precipitation  
Precipitation 0.00 in - - ()
Sea Level Pressure  
Sea Level Pressure 30.44 in    
Wind  
Wind Speed 0 mph (NE)    
Max Wind Speed 5 mph    
Max Gust Speed -    
Visibility 3 miles    
Events Fog    
Averages and records for this station are not official NWS values.
T = Trace of Precipitation, MM = Missing Value Source: NWS Daily Summary

Daily Weather History Graph

Daily Weather History Graph

Search for Another Location

Airport or City:

Trip Planner

Search our weather history database for the weather conditions in past years. The results will help you decide how hot, cold, wet, or windy it might be!

Date:

Astronomy

Nov. 16, 2012 Rise Set
Actual Time 7:33 AM EST 5:12 PM EST
Civil Twilight 7:02 AM EST 5:43 PM EST
Nautical Twilight 6:28 AM EST 6:18 PM EST
Astronomical Twilight 5:54 AM EST 6:52 PM EST
Moon 10:29 AM EST (11/16) 8:10 PM EST (11/16)
Length of Visible Light 10h 40m
Length of Day
9h 39m
Waxing Crescent, 11% of the Moon is Illuminated
Nov 16
Waxing Crescent
Nov 20
First Quarter
Nov 28
Full
Dec 6
Last Quarter
Dec 13
New

Hourly Weather History & Observations

Time (EST) Temp. Windchill Dew Point Humidity Pressure Visibility Wind Dir Wind Speed Gust Speed Precip Events Conditions
12:15 AM 25.2 °F - 24.1 °F 96% 30.36 in 3.0 mi Calm Calm - N/A   Clear
12:35 AM 25.5 °F - 24.6 °F 96% 30.36 in 3.0 mi Calm Calm - N/A   Clear
12:55 AM 23.7 °F - 23.0 °F 97% 30.36 in 3.0 mi Calm Calm - N/A   Clear
1:15 AM 23.9 °F - 22.8 °F 96% 30.37 in 4.0 mi Calm Calm - N/A   Clear
1:35 AM 23.9 °F - 23.2 °F 97% 30.37 in 2.5 mi Calm Calm - N/A   Clear
1:55 AM 23.9 °F - 23.2 °F 97% 30.37 in 3.0 mi Calm Calm - N/A   Clear
2:15 AM 24.1 °F - 23.5 °F 98% 30.37 in 4.0 mi Calm Calm - N/A   Clear
2:30 AM 23.5 °F - 23.0 °F 98% 30.38 in 4.0 mi Calm Calm - N/A   Clear
2:50 AM 24.4 °F - 23.7 °F 97% 30.38 in 4.0 mi Calm Calm - N/A   Clear
3:11 AM 25.2 °F - 24.6 °F 98% 30.38 in 4.0 mi Calm Calm - N/A   Clear
3:31 AM 24.8 °F 20.5 °F 24.3 °F 98% 30.38 in 4.0 mi South 3.5 mph - N/A   Clear
3:51 AM 24.4 °F - 23.5 °F 96% 30.37 in 4.0 mi Calm Calm - N/A   Clear
4:11 AM 24.3 °F - 23.5 °F 97% 30.37 in 4.0 mi Calm Calm - N/A   Clear
4:31 AM 23.9 °F - 23.0 °F 96% 30.37 in 4.0 mi Calm Calm - N/A   Clear
4:51 AM 24.3 °F - 23.4 °F 96% 30.38 in 4.0 mi Calm Calm - N/A   Clear
5:11 AM 23.4 °F - 22.3 °F 96% 30.39 in 4.0 mi Calm Calm - N/A   Clear
5:31 AM 23.4 °F - 22.5 °F 96% 30.40 in 4.0 mi Calm Calm - N/A   Clear
5:52 AM 23.7 °F - 23.0 °F 97% 30.40 in 2.5 mi Calm Calm - N/A   Clear
6:12 AM 23.9 °F - 23.2 °F 97% 30.41 in 2.5 mi Calm Calm - N/A   Clear
6:32 AM 22.8 °F - 21.9 °F 96% 30.41 in 4.0 mi Calm Calm - N/A   Clear
6:52 AM 23.4 °F - 22.5 °F 96% 30.41 in 2.0 mi Calm Calm - N/A   Clear
7:12 AM 23.5 °F - 22.8 °F 97% 30.42 in 2.5 mi Calm Calm - N/A   Scattered Clouds
7:32 AM 22.1 °F - 21.4 °F 97% 30.43 in 3.0 mi Calm Calm - N/A   Scattered Clouds
7:52 AM 23.2 °F - 22.3 °F 96% 30.43 in 1.5 mi Calm Calm - N/A   Mist
8:12 AM 22.6 °F - 22.1 °F 98% 30.43 in 1.8 mi Calm Calm - N/A   Mist
8:32 AM 25.0 °F - 24.4 °F 98% 30.44 in 2.5 mi Calm Calm - N/A   Clear
8:53 AM 28.4 °F - 27.5 °F 96% 30.44 in 1.8 mi Calm Calm - N/A   Mist
9:13 AM 29.8 °F - 28.9 °F 96% 30.45 in 1.8 mi Calm Calm - N/A   Mist
9:33 AM 31.6 °F - 30.6 °F 96% 30.45 in 2.0 mi Calm Calm - N/A   Clear
9:53 AM 33.8 °F - 32.0 °F 93% 30.46 in 2.5 mi Calm Calm - N/A   Clear
10:13 AM 36.0 °F - 33.1 °F 89% 30.45 in 3.0 mi Calm Calm - N/A   Clear
10:33 AM 37.8 °F - 33.6 °F 85% 30.46 in 4.0 mi Calm Calm - N/A   Clear
10:53 AM 39.4 °F - 34.5 °F 83% 30.46 in 5.0 mi Calm Calm - N/A   Clear
11:13 AM 40.3 °F - 35.1 °F 82% 30.46 in 5.0 mi Calm Calm - N/A   Haze
11:34 AM 42.1 °F - 36.1 °F 79% 30.46 in 5.0 mi Calm Calm - N/A   Haze
11:54 AM 43.0 °F - 36.5 °F 78% 30.45 in 5.0 mi Calm Calm - N/A   Haze
12:14 PM 44.4 °F - 37.2 °F 76% 30.44 in 5.0 mi Calm Calm - N/A   Haze
12:34 PM 45.5 °F - 37.4 °F 73% 30.44 in 5.0 mi Calm Calm - N/A   Haze
12:54 PM 45.9 °F - 37.6 °F 73% 30.44 in 5.0 mi Calm Calm - N/A   Haze
1:14 PM 46.6 °F - 37.8 °F 71% 30.44 in 5.0 mi East 3.5 mph - N/A   Haze
1:35 PM 47.8 °F - 37.4 °F 67% 30.45 in 5.0 mi Calm Calm - N/A   Haze
1:55 PM 48.0 °F - 36.9 °F 65% 30.44 in 5.0 mi Calm Calm - N/A   Haze
2:15 PM 48.4 °F - 36.5 °F 64% 30.45 in 5.0 mi Calm Calm - N/A   Haze
2:35 PM 48.4 °F - 36.7 °F 64% 30.45 in 5.0 mi Calm Calm - N/A   Haze
2:55 PM 48.9 °F - 36.3 °F 62% 30.45 in 7.0 mi Calm Calm - N/A   Clear
3:15 PM 48.4 °F - 37.6 °F 66% 30.45 in 5.0 mi East 3.5 mph - N/A   Haze
3:35 PM 48.2 °F - 37.8 °F 67% 30.45 in 5.0 mi ENE 4.6 mph - N/A   Haze
3:55 PM 48.0 °F - 37.6 °F 67% 30.46 in 5.0 mi NE 3.5 mph - N/A   Haze
4:16 PM 47.3 °F - 37.4 °F 68% 30.46 in 5.0 mi NNE 4.6 mph - N/A   Haze
4:31 PM 46.4 °F 45.2 °F 37.4 °F 71% 30.47 in 5.0 mi NNE 3.5 mph - N/A   Haze
4:51 PM 45.0 °F 43.5 °F 36.7 °F 73% 30.47 in 5.0 mi NNE 3.5 mph - N/A   Haze
5:11 PM 43.0 °F 40.3 °F 37.8 °F 82% 30.47 in 4.0 mi North 4.6 mph - N/A   Haze
5:31 PM 39.2 °F 35.9 °F 35.8 °F 88% 30.48 in 3.0 mi North 4.6 mph - N/A   Clear
5:51 PM 38.1 °F - 36.1 °F 93% 30.48 in 3.0 mi Calm Calm - N/A   Clear
6:11 PM 38.3 °F - 36.5 °F 93% 30.48 in 3.0 mi Calm Calm - N/A   Clear
6:31 PM 36.9 °F - 35.4 °F 95% 30.48 in 3.0 mi Calm Calm - N/A   Clear
6:51 PM 36.1 °F - 34.7 °F 94% 30.48 in 2.5 mi Calm Calm - N/A   Clear
7:12 PM 32.7 °F - 32.0 °F 97% 30.48 in 0.2 mi Calm Calm - N/A Fog Fog
7:32 PM 32.0 °F - 32.0 °F 100% 30.48 in 0.2 mi Calm Calm - N/A Fog Fog
7:52 PM 30.7 °F - 30.4 °F 99% 30.48 in 0.2 mi Calm Calm - N/A Fog Light Freezing Fog
8:12 PM 29.5 °F - 29.1 °F 99% 30.48 in 0.2 mi Calm Calm - N/A Fog Light Freezing Fog
8:32 PM 30.0 °F - 29.8 °F 99% 30.48 in 0.2 mi Calm Calm - N/A Fog Light Freezing Fog
8:52 PM 30.2 °F - 30.2 °F 100% 30.48 in 0.2 mi Calm Calm - N/A Fog Light Freezing Fog
9:12 PM 29.7 °F - 29.7 °F 100% 30.48 in 0.2 mi Calm Calm - N/A Fog Light Freezing Fog
9:32 PM 28.6 °F - 28.6 °F 100% 30.49 in 0.2 mi Calm Calm - N/A Fog Light Freezing Fog
9:53 PM 27.9 °F - 27.9 °F 100% 30.48 in 0.2 mi Calm Calm - N/A Fog Light Freezing Fog
10:13 PM 27.9 °F - 27.9 °F 100% 30.49 in 0.2 mi Calm Calm - N/A Fog Light Freezing Fog
11:13 PM 27.9 °F - 27.9 °F 100% 30.49 in 0.2 mi Calm Calm - N/A Fog Light Freezing Fog
11:33 PM 27.5 °F - 27.5 °F 100% 30.50 in 0.2 mi Calm Calm - N/A Fog Light Freezing Fog
11:53 PM 27.9 °F - 27.9 °F 100% 30.50 in 0.2 mi Calm Calm - N/A Fog Light Freezing Fog